M I D A S
Marine Information and Data Acquisition System
Tripno 1957 of the Zeeleeuw from 2010-09-15 06:25:38 to 2010-09-15 10:44:20
Back to CruiseResearch ActivitiesStationsMapUnderway DataData graphs

EquipmentUnitsComments
TimeDGPSUTC
LatitudeDGPSDM.mWGS84
LongitudeDGPSDM.mWGS84
SpeedMeteo Stationm/sRelative wind speed
DirectionMeteo StationdegRelative wind direction
TemperatureMeteo Stationdeg CelciusAir temperature
PressureMeteo StationPaAtmospheric pressure
HumidityMeteo Station%Relative humidity
Missing or incorrect values are displayed as -999
Metereological data collected by the RV Zeeleeuw from 2010-09-15 06:11:35 to 2010-09-15 10:53:31
Time Latitude Longitude Speed Direction Temperature Pressure Humidity
2010-09-15 06:12 51°13.665 2°55.959 6.4 31 14.7 101150 43
2010-09-15 06:13 51°13.664 2°55.96 3.7 43 14.7 101150 43
2010-09-15 06:14 51°13.663 2°55.959 4.4 19 14.7 101150 43
2010-09-15 06:15 51°13.663 2°55.96 7.2 41 14.7 101160 42
2010-09-15 06:16 51°13.662 2°55.96 5.5 19 14.6 101160 43
2010-09-15 06:17 51°13.663 2°55.963 6.8 44 14.6 101160 42
2010-09-15 06:18 51°13.663 2°55.962 5.5 24 14.6 101160 42
2010-09-15 06:19 51°13.662 2°55.96 3.9 29 14.6 101160 42
2010-09-15 06:20 51°13.662 2°55.961 3.1 45 14.6 101160 42
2010-09-15 06:21 51°13.663 2°55.961 5.2 38 14.6 101150 42
2010-09-15 06:22 51°13.662 2°55.96 6.6 23 14.6 101150 43
2010-09-15 06:23 51°13.663 2°55.961 3.1 27 14.6 101150 43
2010-09-15 06:24 51°13.661 2°55.96 5 23 14.6 101150 42
2010-09-15 06:25 51°13.663 2°55.95 5.7 22 14.6 101150 41
2010-09-15 06:26 51°13.685 2°55.849 6.8 21 14.9 101160 43
2010-09-15 06:27 51°13.694 2°55.755 3.7 27 14.9 101160 41
2010-09-15 06:28 51°13.7 2°55.754 5.2 267 14.8 101160 42
2010-09-15 06:29 51°13.69 2°55.744 6.7 261 14.7 101170 42
2010-09-15 06:30 51°13.745 2°55.704 6.2 307 14.7 101150 42
2010-09-15 06:31 51°13.896 2°55.586 10 315 14.6 101150 41
2010-09-15 06:32 51°14.052 2°55.476 8.3 316 14.6 101150 42
2010-09-15 06:33 51°14.22 2°55.336 13 22 14.7 101130 42
2010-09-15 06:34 51°14.392 2°55.179 15 25 14.7 101110 42
2010-09-15 06:35 51°14.556 2°54.994 15.4 316 14.6 101100 42
2010-09-15 06:36 51°14.74 2°54.82 13.1 318 14.7 101090 42
2010-09-15 06:37 51°14.925 2°54.65 17.6 22 14.7 101120 42
2010-09-15 06:38 51°15.103 2°54.46 12.7 22 14.8 101100 43
2010-09-15 06:39 51°15.278 2°54.263 15.4 23 14.7 101090 42
2010-09-15 06:40 51°15.443 2°54.049 14.4 321 14.7 101100 43
2010-09-15 06:41 51°15.604 2°53.823 12.8 320 14.8 101110 42
2010-09-15 06:42 51°15.77 2°53.604 14.4 321 14.7 101110 42
2010-09-15 06:43 51°15.942 2°53.398 13.4 320 14.7 101110 41
2010-09-15 06:44 51°16.121 2°53.217 13.3 319 14.7 101100 42
2010-09-15 06:45 51°16.3 2°53.039 14.1 317 14.7 101110 41
2010-09-15 06:46 51°16.493 2°52.879 13.5 319 14.7 101110 42
2010-09-15 06:47 51°16.693 2°52.738 11.8 22 14.7 101110 41
2010-09-15 06:48 51°16.895 2°52.603 13.9 316 14.9 101100 43
2010-09-15 06:49 51°17.097 2°52.464 14.5 23 14.8 101110 43
2010-09-15 06:50 51°17.314 2°52.379 14 21 14.8 101110 43
2010-09-15 06:51 51°17.536 2°52.332 12.2 28 14.8 101090 43
2010-09-15 06:52 51°17.76 2°52.287 12.5 21 14.8 101090 42
2010-09-15 06:53 51°17.982 2°52.305 9.7 20 14.7 101130 43
2010-09-15 06:54 51°18.211 2°52.365 9.9 25 14.8 101120 43
2010-09-15 06:55 51°18.44 2°52.43 10.3 23 14.8 101120 43
2010-09-15 06:56 51°18.662 2°52.499 11.8 28 14.7 101110 43
2010-09-15 06:57 51°18.891 2°52.571 10.2 25 14.7 101110 43
2010-09-15 06:58 51°19.119 2°52.638 11.5 23 14.8 101120 43
2010-09-15 06:59 51°19.346 2°52.69 12.6 22 14.7 101110 43
2010-09-15 07:00 51°19.572 2°52.757 14 28 14.7 101120 42
2010-09-15 07:01 51°19.8 2°52.819 13.8 21 14.6 101100 42
2010-09-15 07:02 51°20.026 2°52.906 12.2 22 14.6 101110 42
2010-09-15 07:03 51°20.248 2°52.995 11.8 26 14.6 101120 41
2010-09-15 07:04 51°20.47 2°53.093 12.1 24 14.6 101110 41
2010-09-15 07:05 51°20.687 2°53.192 12.4 25 14.6 101110 41
2010-09-15 07:06 51°20.907 2°53.282 12.5 24 14.6 101120 41
2010-09-15 07:07 51°21.128 2°53.388 12.6 24 14.7 101110 41
2010-09-15 07:08 51°21.347 2°53.486 14.5 22 14.7 101100 41
2010-09-15 07:09 51°21.567 2°53.572 12.7 28 14.6 101090 41
2010-09-15 07:10 51°21.785 2°53.659 11.1 21 14.6 101080 41
2010-09-15 07:11 51°22.011 2°53.75 10.8 24 14.7 101110 40
2010-09-15 07:12 51°22.234 2°53.846 11.8 243 14.7 101080 41
2010-09-15 07:13 51°22.451 2°53.936 11.3 24 14.7 101100 41
2010-09-15 07:14 51°22.671 2°54.033 9 242 14.7 101110 40
2010-09-15 07:15 51°22.893 2°54.126 10.3 22 14.8 101100 40
2010-09-15 07:16 51°23.12 2°54.225 10 23 14.7 101080 40
2010-09-15 07:17 51°23.346 2°54.272 13.2 23 14.7 101100 40
2010-09-15 07:18 51°23.573 2°54.304 11 23 14.7 101080 39
2010-09-15 07:19 51°23.798 2°54.339 11.7 26 14.7 101090 40
2010-09-15 07:20 51°24.023 2°54.367 11.5 25 14.7 101070 40
2010-09-15 07:21 51°24.243 2°54.396 11.7 23 14.7 101080 39
2010-09-15 07:22 51°24.469 2°54.428 12.3 25 14.8 101070 40
2010-09-15 07:23 51°24.7 2°54.459 10.4 29 14.8 101070 40
2010-09-15 07:24 51°24.927 2°54.49 11.4 23 14.8 101070 39
2010-09-15 07:25 51°25.144 2°54.52 12.3 21 14.8 101080 39
2010-09-15 07:26 51°25.37 2°54.552 12.3 27 14.8 101070 40
2010-09-15 07:27 51°25.59 2°54.577 11.8 25 14.8 101070 41
2010-09-15 07:28 51°25.81 2°54.611 10 23 14.7 101090 40
2010-09-15 07:29 51°26.036 2°54.642 10.8 23 14.8 101090 40
2010-09-15 07:30 51°26.267 2°54.677 12.3 24 14.8 101070 41
2010-09-15 07:31 51°26.487 2°54.714 14.1 22 14.8 101040 42
2010-09-15 07:32 51°26.713 2°54.748 12.8 22 14.7 101070 41
2010-09-15 07:33 51°26.943 2°54.778 12.5 20 14.7 101070 40
2010-09-15 07:34 51°27.178 2°54.813 12.2 25 14.6 101090 41
2010-09-15 07:35 51°27.409 2°54.85 10.8 22 14.6 101080 40
2010-09-15 07:36 51°27.635 2°54.885 11.4 23 14.5 101090 40
2010-09-15 07:37 51°27.862 2°54.929 11.3 22 14.5 101070 40
2010-09-15 07:38 51°28.094 2°54.963 11.7 22 14.6 101060 41
2010-09-15 07:39 51°28.316 2°54.991 13.8 25 14.6 101080 41
2010-09-15 07:40 51°28.549 2°55.015 12.5 23 14.6 101090 41
2010-09-15 07:41 51°28.776 2°55.034 11.4 28 14.7 101060 41
2010-09-15 07:42 51°29.002 2°55.072 11.9 21 14.6 101100 41
2010-09-15 07:43 51°29.224 2°55.103 12.8 243 14.7 101070 40
2010-09-15 07:44 51°29.445 2°55.135 11.2 23 14.6 101060 40
2010-09-15 07:45 51°29.67 2°55.157 10.6 22 14.7 101050 40
2010-09-15 07:46 51°29.898 2°55.191 11.6 24 14.7 101060 40
2010-09-15 07:47 51°30.121 2°55.224 12.1 29 14.7 101080 40
2010-09-15 07:48 51°30.346 2°55.26 14.5 26 14.7 101070 40
2010-09-15 07:49 51°30.573 2°55.292 11.1 22 14.7 101060 40
2010-09-15 07:50 51°30.801 2°55.332 12.6 246 14.6 101080 39
2010-09-15 07:51 51°31.029 2°55.355 13.1 19 14.6 101070 39
2010-09-15 07:52 51°31.258 2°55.332 12.1 25 14.7 101050 41
2010-09-15 07:53 51°31.488 2°55.316 13.3 27 14.7 101090 42
2010-09-15 07:54 51°31.714 2°55.294 13.2 24 14.7 101060 41
2010-09-15 07:55 51°31.934 2°55.273 13.8 22 14.7 101060 41
2010-09-15 07:56 51°32.157 2°55.24 13.5 26 14.6 101090 40
2010-09-15 07:57 51°32.378 2°55.19 12.5 28 14.6 101060 40
2010-09-15 07:58 51°32.599 2°55.143 14.8 24 14.6 101050 40
2010-09-15 07:59 51°32.818 2°55.096 12.5 24 14.6 101050 41
2010-09-15 08:00 51°32.879 2°54.974 11.9 338 14.6 101060 39
2010-09-15 08:01 51°32.829 2°54.977 8.4 37 14.6 101060 41
2010-09-15 08:02 51°32.805 2°55.088 8.2 42 14.6 101090 41
2010-09-15 08:03 51°32.786 2°55.163 8.6 38 14.4 101090 41
2010-09-15 08:04 51°32.775 2°55.219 8.7 30 14.5 101090 42
2010-09-15 08:05 51°32.768 2°55.261 8.4 26 14.5 101080 41
2010-09-15 08:06 51°32.766 2°55.294 9 20 14.4 101080 39
2010-09-15 08:07 51°32.768 2°55.323 8.7 18 14.5 101080 41
2010-09-15 08:08 51°32.769 2°55.352 11.5 15 14.6 101070 41
2010-09-15 08:09 51°32.77 2°55.376 9.8 8 14.5 101070 41
2010-09-15 08:10 51°32.775 2°55.402 9.2 6 14.5 101080 40
2010-09-15 08:11 51°32.782 2°55.431 10.5 10 14.4 101060 39
2010-09-15 08:12 51°32.773 2°55.46 9.8 15 14.6 101090 42
2010-09-15 08:13 51°32.734 2°55.484 10.7 3 14.5 101070 40
2010-09-15 08:14 51°32.702 2°55.441 11.9 331 14.5 101070 41
2010-09-15 08:15 51°32.766 2°55.296 15.7 23 14.5 101050 41
2010-09-15 08:16 51°32.934 2°55.112 15 24 14.5 101020 40
2010-09-15 08:17 51°33.15 2°55.097 9 253 14.5 101060 39
2010-09-15 08:18 51°33.248 2°55.386 3.5 39 14.6 101110 40
2010-09-15 08:19 51°33.21 2°55.627 8.3 32 14.6 101100 39
2010-09-15 08:20 51°33.165 2°55.728 11.3 31 14.6 101080 41
2010-09-15 08:21 51°33.153 2°55.768 10 20 14.5 101100 40
2010-09-15 08:22 51°33.156 2°55.791 11.8 13 14.5 101070 40
2010-09-15 08:23 51°33.166 2°55.82 10 15 14.5 101080 40
2010-09-15 08:24 51°33.179 2°55.848 8.6 21 14.4 101070 40
2010-09-15 08:25 51°33.19 2°55.875 8.9 31 14.5 101080 39
2010-09-15 08:26 51°33.199 2°55.905 10.6 24 14.5 101080 40
2010-09-15 08:27 51°33.206 2°55.933 11.2 27 14.5 101080 40
2010-09-15 08:28 51°33.208 2°55.959 10.9 23 14.5 101070 40
2010-09-15 08:29 51°33.208 2°55.985 12.2 11 14.5 101070 40
2010-09-15 08:30 51°33.213 2°56.009 8.2 14 14.5 101080 40
2010-09-15 08:31 51°33.217 2°56.032 8.5 9 14.6 101090 41
2010-09-15 08:32 51°33.221 2°56.056 9.3 8 14.6 101070 40
2010-09-15 08:33 51°33.228 2°56.082 10.1 18 14.6 101080 40
2010-09-15 08:34 51°33.236 2°56.108 9.8 19 14.5 101070 39
2010-09-15 08:35 51°33.242 2°56.132 7.7 26 14.5 101070 39
2010-09-15 08:36 51°33.248 2°56.157 9.1 18 14.5 101080 38
2010-09-15 08:37 51°33.255 2°56.183 10.9 21 14.4 101060 37
2010-09-15 08:38 51°33.262 2°56.21 10.5 20 14.5 101060 39
2010-09-15 08:39 51°33.255 2°56.23 9.4 13 14.4 101070 37
2010-09-15 08:40 51°33.206 2°56.213 8.3 5 14.6 101050 41
2010-09-15 08:41 51°33.134 2°56.19 10 3 14.5 101060 39
2010-09-15 08:42 51°33.088 2°56.182 8.7 8 14.5 101050 38
2010-09-15 08:43 51°33.069 2°56.19 10.7 5 14.5 101060 39
2010-09-15 08:44 51°33.065 2°56.208 9.6 5 14.5 101050 40
2010-09-15 08:45 51°33.066 2°56.229 8.6 13 14.5 101050 40
2010-09-15 08:46 51°33.067 2°56.25 9.4 10 14.6 101070 41
2010-09-15 08:47 51°33.062 2°56.269 12 12 14.5 101060 41
2010-09-15 08:48 51°33.059 2°56.292 12.6 14 14.4 101050 40
2010-09-15 08:49 51°33.063 2°56.315 9.9 7 14.5 101060 41
2010-09-15 08:50 51°33.072 2°56.341 12.5 17 14.5 101060 41
2010-09-15 08:51 51°33.084 2°56.369 10.1 24 14.5 101040 40
2010-09-15 08:52 51°33.095 2°56.396 8.7 20 14.5 101070 41
2010-09-15 08:53 51°33.103 2°56.421 9.6 21 14.5 101070 40
2010-09-15 08:54 51°33.103 2°56.453 11.1 30 14.5 101070 40
2010-09-15 08:55 51°33.089 2°56.52 8.4 27 14.6 101080 41
2010-09-15 08:56 51°33.119 2°56.607 8.2 260 14.5 101110 40
2010-09-15 08:57 51°33.176 2°56.624 12 20 14.5 101090 41
2010-09-15 08:58 51°33.22 2°56.577 11 22 14.6 101080 42
2010-09-15 08:59 51°33.243 2°56.554 8.7 19 14.4 101050 39
2010-09-15 09:00 51°33.26 2°56.567 12.2 24 14.5 101070 41
2010-09-15 09:01 51°33.27 2°56.594 12.9 255 14.6 101070 41
2010-09-15 09:02 51°33.274 2°56.618 10.3 266 14.6 101120 41
2010-09-15 09:03 51°33.278 2°56.642 9.4 270 14.6 101110 41
2010-09-15 09:04 51°33.279 2°56.663 10.8 22 14.7 101110 42
2010-09-15 09:05 51°33.287 2°56.685 9.8 26 14.5 101110 42
2010-09-15 09:06 51°33.328 2°56.76 4.4 22 14.5 101100 41
2010-09-15 09:07 51°33.288 2°56.876 10.1 16 14.5 101060 42
2010-09-15 09:08 51°33.155 2°57.042 10 9 14.5 101060 41
2010-09-15 09:09 51°32.983 2°57.23 10.7 10 14.4 101070 40
2010-09-15 09:10 51°32.799 2°57.382 10.4 10 14.4 101070 41
2010-09-15 09:11 51°32.616 2°57.515 10.9 6 14.3 101060 38
2010-09-15 09:12 51°32.422 2°57.593 10.8 2 14.4 101070 40
2010-09-15 09:13 51°32.22 2°57.59 14.4 357 14.3 101060 40
2010-09-15 09:14 51°32.023 2°57.572 14.1 359 14.4 101050 41
2010-09-15 09:15 51°31.827 2°57.567 15.7 347 14.3 101040 41
2010-09-15 09:16 51°31.628 2°57.534 15.6 353 14.3 101040 40
2010-09-15 09:17 51°31.43 2°57.497 14.4 359 14.2 101060 40
2010-09-15 09:18 51°31.227 2°57.455 14.2 356 14.2 101050 41
2010-09-15 09:19 51°31.023 2°57.42 12.7 354 14.2 101060 41
2010-09-15 09:20 51°30.821 2°57.378 15.2 355 14.2 101060 40
2010-09-15 09:21 51°30.624 2°57.295 13.9 351 14.1 101060 41
2010-09-15 09:22 51°30.426 2°57.199 15.3 351 14.2 101050 42
2010-09-15 09:23 51°30.229 2°57.109 15.1 352 14.1 101070 40
2010-09-15 09:24 51°30.035 2°57.02 14.8 359 14.2 101070 40
2010-09-15 09:25 51°29.836 2°56.922 14.3 354 14.2 101060 40
2010-09-15 09:26 51°29.64 2°56.84 14.3 351 14.2 101070 41
2010-09-15 09:27 51°29.442 2°56.758 14.4 354 14.2 101060 40
2010-09-15 09:28 51°29.239 2°56.667 14.9 348 14.1 101070 40
2010-09-15 09:29 51°29.045 2°56.576 14.3 354 14.2 101070 40
2010-09-15 09:30 51°28.842 2°56.483 16.5 351 14.2 101090 40
2010-09-15 09:31 51°28.644 2°56.399 14 348 14.2 101080 41
2010-09-15 09:32 51°28.448 2°56.318 14.5 355 14.3 101060 41
2010-09-15 09:33 51°28.248 2°56.24 13.8 352 14.3 101100 40
2010-09-15 09:34 51°28.049 2°56.145 15.1 348 14.3 101080 42
2010-09-15 09:35 51°27.85 2°56.063 16 358 14.3 101040 41
2010-09-15 09:36 51°27.65 2°55.978 14 355 14.3 101080 41
2010-09-15 09:37 51°27.457 2°55.887 14.8 353 14.3 101060 41
2010-09-15 09:38 51°27.252 2°55.803 15.6 355 14.3 101050 40
2010-09-15 09:39 51°27.051 2°55.715 17.3 357 14.3 101050 38
2010-09-15 09:40 51°26.843 2°55.627 17 355 14.3 101070 38
2010-09-15 09:41 51°26.636 2°55.54 16.3 355 14.3 101070 40
2010-09-15 09:42 51°26.43 2°55.454 13.8 356 14.3 101060 38
2010-09-15 09:43 51°26.22 2°55.366 15.6 350 14.4 101060 41
2010-09-15 09:44 51°26.017 2°55.28 17.6 353 14.4 101080 39
2010-09-15 09:45 51°25.809 2°55.199 16.4 356 14.4 101070 39
2010-09-15 09:46 51°25.605 2°55.123 18.4 352 14.4 101070 39
2010-09-15 09:47 51°25.409 2°55.029 14.7 356 14.5 101070 39
2010-09-15 09:48 51°25.204 2°54.964 14.9 358 14.5 101080 39
2010-09-15 09:49 51°24.994 2°54.914 15.3 360 14.5 101070 39
2010-09-15 09:50 51°24.791 2°54.852 14.1 353 14.5 101060 39
2010-09-15 09:51 51°24.583 2°54.787 14.3 359 14.5 101070 37
2010-09-15 09:52 51°24.369 2°54.73 16.3 357 14.6 101080 39
2010-09-15 09:53 51°24.164 2°54.667 15.4 358 14.6 101080 39
2010-09-15 09:54 51°23.953 2°54.603 15.5 357 14.6 101070 38
2010-09-15 09:55 51°23.749 2°54.533 17.5 354 14.5 101070 38
2010-09-15 09:56 51°23.541 2°54.479 16.6 359 14.6 101080 38
2010-09-15 09:57 51°23.33 2°54.416 14.9 353 14.6 101070 40
2010-09-15 09:58 51°23.116 2°54.35 16.2 357 14.6 101070 39
2010-09-15 09:59 51°22.905 2°54.285 15.6 357 14.6 101050 38
2010-09-15 10:00 51°22.701 2°54.189 17.1 351 14.6 101070 39
2010-09-15 10:01 51°22.506 2°54.075 17.5 352 14.6 101060 39
2010-09-15 10:02 51°22.304 2°53.958 16.1 351 14.6 101070 40
2010-09-15 10:03 51°22.103 2°53.855 16.3 350 14.5 101060 37
2010-09-15 10:04 51°21.898 2°53.754 15.6 352 14.6 101070 39
2010-09-15 10:05 51°21.688 2°53.668 16.1 352 14.6 101080 40
2010-09-15 10:06 51°21.488 2°53.577 13 356 14.6 101060 39
2010-09-15 10:07 51°21.282 2°53.478 13.1 350 14.6 101060 38
2010-09-15 10:08 51°21.084 2°53.379 17 347 14.6 101080 39
2010-09-15 10:09 51°20.882 2°53.285 13.3 354 14.6 101070 40
2010-09-15 10:10 51°20.676 2°53.189 16.2 351 14.6 101080 40
2010-09-15 10:11 51°20.468 2°53.096 14.1 352 14.5 101060 39
2010-09-15 10:12 51°20.267 2°52.996 16.8 355 14.6 101060 40
2010-09-15 10:13 51°20.055 2°52.914 13.3 352 14.6 101070 40
2010-09-15 10:14 51°19.845 2°52.85 14.6 353 14.6 101080 39
2010-09-15 10:15 51°19.638 2°52.789 12.3 358 14.6 101090 40
2010-09-15 10:16 51°19.424 2°52.723 15.7 358 14.6 101090 41
2010-09-15 10:17 51°19.217 2°52.71 14.5 1 14.6 101060 40
2010-09-15 10:18 51°19.006 2°52.701 15.9 356 14.6 101100 39
2010-09-15 10:19 51°18.796 2°52.684 16 353 14.6 101100 39
2010-09-15 10:20 51°18.586 2°52.621 17.1 352 14.5 101080 38
2010-09-15 10:21 51°18.38 2°52.544 15.4 352 14.6 101090 41
2010-09-15 10:22 51°18.169 2°52.485 17.2 358 14.7 101090 40
2010-09-15 10:23 51°17.964 2°52.44 11.2 355 14.6 101080 39
2010-09-15 10:24 51°17.75 2°52.406 13.4 358 14.6 101090 39
2010-09-15 10:25 51°17.541 2°52.402 14.6 4 14.6 101070 37
2010-09-15 10:26 51°17.33 2°52.447 12.9 7 14.6 101090 38
2010-09-15 10:27 51°17.154 2°52.614 7.9 20 14.6 101110 38
2010-09-15 10:28 51°17.001 2°52.843 10.4 11 14.7 101130 40
2010-09-15 10:29 51°16.814 2°53.019 14.7 9 14.7 101120 37
2010-09-15 10:30 51°16.606 2°53.106 13.9 2 14.7 101110 40
2010-09-15 10:31 51°16.391 2°53.186 12.1 3 14.7 101090 40
2010-09-15 10:32 51°16.184 2°53.279 13.8 360 14.7 101100 40
2010-09-15 10:33 51°15.98 2°53.365 13.7 10 14.7 101100 39
2010-09-15 10:34 51°15.791 2°53.516 12.5 12 14.7 101120 38
2010-09-15 10:35 51°15.616 2°53.709 8.9 15 14.7 101130 39
2010-09-15 10:36 51°15.45 2°53.921 11.3 20 14.7 101120 39
2010-09-15 10:37 51°15.282 2°54.137 9.3 11 14.7 101130 39
2010-09-15 10:38 51°15.108 2°54.347 11.7 11 14.7 101130 39
2010-09-15 10:39 51°14.934 2°54.546 10.5 16 14.7 101130 40
2010-09-15 10:40 51°14.755 2°54.749 11 10 14.7 101120 40
2010-09-15 10:41 51°14.574 2°54.949 9.7 14 14.7 101130 38
2010-09-15 10:42 51°14.402 2°55.143 11.7 20 14.7 101130 39
2010-09-15 10:43 51°14.245 2°55.312 7.1 2 14.7 101130 38
2010-09-15 10:44 51°14.106 2°55.427 4.2 26 14.9 101150 38
2010-09-15 10:45 51°13.978 2°55.521 5.1 15 15 101140 38
2010-09-15 10:46 51°13.878 2°55.596 3.6 350 15.1 101150 37
2010-09-15 10:47 51°13.785 2°55.685 5.5 6 15.2 101150 36
2010-09-15 10:48 51°13.719 2°55.795 6.4 14 15.3 101150 37
2010-09-15 10:49 51°13.672 2°55.91 2.3 20 15.3 101150 36
2010-09-15 10:50 51°13.662 2°55.96 7 39 15.4 101140 37
2010-09-15 10:51 51°13.662 2°55.959 6.7 25 15.3 101140 37
2010-09-15 10:52 51°13.662 2°55.959 6.3 28 15.3 101140 36